sat.trackr.live / text

‹ back to catalog

STARLINK-31032

NORAD 58535 · 2023-192E

PAYLOAD ACTIVE UNKNOWN

§ Identity

Operator
Country
US
Launch date
2023-12-08
Launch site
AFWTR
Launch vehicle
Mass (kg)
RCS (m²)

Purposes: comms

External: N2YO · Heavens-Above · Gunter

§ Orbital elements

Epoch: 2026-09-20T11:46:15.760416Z

Period
93.85 min
Inclination
53.1590°
Eccentricity
0.0001311
Mean motion
15.34396822 rev/d
Perigee alt
461.8 km
Apogee alt
463.6 km
Semi-major
6,840.8 km
B*
7.2181e-5
RAAN
233.4177°
Arg perigee
96.3130°
Mean anomaly
263.8022°
Rev number
15,587

§ Raw data

STARLINK-310321 58535U 23192E   26263.49046019  .00002063  00000+0  72181-4 0  99982 58535  53.1590 233.4177 0001311  96.3130 263.8022 15.34396822155878

JSON: /api/v1/satellites/58535 · /tle

For live sub-satellite position, see the globe view (requires WebGL).

§ Visibility from observer

Set your observer location to see the next 7 days of passes ≥ 10°. The values pass through the URL so the page stays shareable.

No JS? Fill the form by hand. The geolocation button needs JavaScript.